AAY1060 KPIE-KEYW

Flight info

Callsign AAY1060
Flight time 0h 41m
Altitude 31000
Route SABEE KRAKN1
Aircraft A319/M-SDE3FGHIRWY/LB1

Departure

Time 2026-04-27 13:58
Airport St. Petersburg Clearwater International Airport (KPIE)

Arrival

Time 2026-04-27 14:39
Airport Key West International Airport (KEYW)
Time Latitude Longitude Altitude Speed Heading
2026-04-27 13:42 27.90664 -82.69019 24 ft 0 kts 262°
2026-04-27 13:49 27.90665 -82.69010 24 ft 4 kts 262°
2026-04-27 13:49 27.90669 -82.68981 24 ft 4 kts 256°
2026-04-27 13:50 27.90676 -82.68952 25 ft 4 kts 246°
2026-04-27 13:50 27.90681 -82.68940 24 ft 0 kts 245°
2026-04-27 13:53 27.90677 -82.68949 24 ft 2 kts 245°
2026-04-27 13:53 27.90668 -82.68959 26 ft 2 kts 212°
2026-04-27 13:54 27.90652 -82.68956 24 ft 3 kts 152°
2026-04-27 13:54 27.90616 -82.68930 24 ft 10 kts 160°
2026-04-27 13:54 27.90524 -82.68912 27 ft 14 kts 171°
2026-04-27 13:54 27.90422 -82.68894 24 ft 15 kts 171°
2026-04-27 13:55 27.90316 -82.68876 25 ft 16 kts 170°
2026-04-27 13:55 27.90208 -82.68857 24 ft 16 kts 176°
2026-04-27 13:55 27.90089 -82.68858 21 ft 18 kts 182°
2026-04-27 13:55 27.89959 -82.68867 22 ft 18 kts 179°
2026-04-27 13:56 27.89837 -82.68851 24 ft 17 kts 173°
2026-04-27 13:56 27.89719 -82.68825 24 ft 17 kts 156°
2026-04-27 13:56 27.89701 -82.68703 22 ft 18 kts 79°
2026-04-27 13:56 27.89768 -82.68622 21 ft 16 kts 348°
2026-04-27 13:57 27.89805 -82.68629 19 ft 4 kts 351°
2026-04-27 13:57 27.90015 -82.68666 21 ft 69 kts 351°
2026-04-27 13:57 27.90706 -82.68785 25 ft 132 kts 351°
2026-04-27 13:57 27.91763 -82.68934 317 ft 156 kts 356°
2026-04-27 13:58 27.92833 -82.69085 1032 ft 157 kts 356°
2026-04-27 13:58 27.93936 -82.69232 1622 ft 162 kts
2026-04-27 13:58 27.95016 -82.68874 2233 ft 164 kts 22°
2026-04-27 13:58 27.96069 -82.68428 2965 ft 161 kts 24°
2026-04-27 13:59 27.97177 -82.67926 3352 ft 178 kts 24°
2026-04-27 13:59 27.98311 -82.67338 4003 ft 179 kts 37°
2026-04-27 13:59 27.98880 -82.66142 4682 ft 183 kts 81°
2026-04-27 13:59 27.98515 -82.64660 4774 ft 223 kts 123°
2026-04-27 14:00 27.97149 -82.63557 4844 ft 265 kts 162°
2026-04-27 14:00 27.95254 -82.63493 5180 ft 283 kts 193°
2026-04-27 14:00 27.93410 -82.64343 5618 ft 297 kts 214°
2026-04-27 14:00 27.91575 -82.65605 6071 ft 321 kts 203°
2026-04-27 14:01 27.89326 -82.66133 6634 ft 336 kts 180°
2026-04-27 14:01 27.87087 -82.65708 7991 ft 320 kts 160°
2026-04-27 14:01 27.85123 -82.64674 9401 ft 305 kts 152°
2026-04-27 14:01 27.83240 -82.63573 10352 ft 309 kts 152°
2026-04-27 14:02 27.81268 -82.62398 10665 ft 333 kts 151°
2026-04-27 14:02 27.79170 -82.61133 11126 ft 347 kts 151°
2026-04-27 14:02 27.77011 -82.59832 11803 ft 354 kts 152°
2026-04-27 14:02 27.74817 -82.58514 12532 ft 359 kts 152°
2026-04-27 14:03 27.72598 -82.57181 13309 ft 363 kts 152°
2026-04-27 14:03 27.70390 -82.55850 14044 ft 366 kts 152°
2026-04-27 14:03 27.68122 -82.54488 14670 ft 371 kts 152°
2026-04-27 14:03 27.65823 -82.53114 15280 ft 376 kts 153°
2026-04-27 14:04 27.63490 -82.51722 15892 ft 381 kts 153°
2026-04-27 14:04 27.61133 -82.50311 16478 ft 387 kts 153°
2026-04-27 14:04 27.58733 -82.48872 17056 ft 392 kts 153°
2026-04-27 14:04 27.56308 -82.47418 17644 ft 398 kts 153°
2026-04-27 14:05 27.53843 -82.45941 18230 ft 403 kts 153°
2026-04-27 14:05 27.51378 -82.44466 18753 ft 408 kts 153°
2026-04-27 14:05 27.48821 -82.42941 19299 ft 412 kts 153°
2026-04-27 14:05 27.46276 -82.41424 19855 ft 416 kts 153°
2026-04-27 14:06 27.43738 -82.39913 20426 ft 420 kts 153°
2026-04-27 14:06 27.41141 -82.38365 20999 ft 423 kts 153°
2026-04-27 14:06 27.38526 -82.36805 21543 ft 427 kts 153°
2026-04-27 14:06 27.35886 -82.35230 22087 ft 431 kts 153°
2026-04-27 14:07 27.33220 -82.33643 22621 ft 435 kts 153°
2026-04-27 14:07 27.30532 -82.32049 23141 ft 438 kts 153°
2026-04-27 14:07 27.27815 -82.30440 23648 ft 442 kts 153°
2026-04-27 14:07 27.25081 -82.28821 24058 ft 446 kts 154°
2026-04-27 14:08 27.22321 -82.27185 24477 ft 449 kts 154°
2026-04-27 14:08 27.19549 -82.25542 24880 ft 452 kts 154°
2026-04-27 14:08 27.16756 -82.23885 25276 ft 456 kts 154°
2026-04-27 14:08 27.13974 -82.22233 25661 ft 459 kts 153°
2026-04-27 14:09 27.11130 -82.20561 26041 ft 461 kts 156°
2026-04-27 14:09 27.08147 -82.19229 26409 ft 462 kts 165°
2026-04-27 14:09 27.05011 -82.18404 26791 ft 462 kts 173°
2026-04-27 14:09 27.01832 -82.17798 27163 ft 465 kts 173°
2026-04-27 14:10 26.98631 -82.17184 27531 ft 468 kts 173°
2026-04-27 14:10 26.95400 -82.16559 27895 ft 471 kts 173°
2026-04-27 14:10 26.92152 -82.15929 28296 ft 473 kts 173°
2026-04-27 14:10 26.88926 -82.15304 28660 ft 476 kts 173°
2026-04-27 14:11 26.85649 -82.14671 29018 ft 479 kts 173°
2026-04-27 14:11 26.82349 -82.14036 29364 ft 482 kts 173°
2026-04-27 14:11 26.79032 -82.13399 29702 ft 485 kts 173°
2026-04-27 14:11 26.75698 -82.12756 30035 ft 488 kts 173°
2026-04-27 14:12 26.72346 -82.12058 30317 ft 491 kts 172°
2026-04-27 14:12 26.68986 -82.11290 30603 ft 494 kts 171°
2026-04-27 14:12 26.65622 -82.10473 30877 ft 496 kts 170°
2026-04-27 14:13 26.58957 -82.08823 30989 ft 477 kts 171°
2026-04-27 14:13 26.52586 -82.07152 30990 ft 469 kts 164°
2026-04-27 14:14 26.46502 -82.04472 30982 ft 469 kts 160°
2026-04-27 14:14 26.40467 -82.01705 30985 ft 469 kts 160°
2026-04-27 14:15 26.34420 -81.98941 30988 ft 469 kts 160°
2026-04-27 14:15 26.28419 -81.96211 30979 ft 468 kts 160°
2026-04-27 14:16 26.22381 -81.93468 30982 ft 468 kts 160°
2026-04-27 14:16 26.16342 -81.90729 30980 ft 467 kts 160°
2026-04-27 14:17 26.10304 -81.87994 30991 ft 474 kts 160°
2026-04-27 14:17 26.07213 -81.86593 30990 ft 485 kts 160°
2026-04-27 14:17 26.04061 -81.85164 30991 ft 493 kts 160°
2026-04-27 14:18 25.97722 -81.82298 31006 ft 496 kts 160°
2026-04-27 14:18 25.91320 -81.79409 31005 ft 496 kts 160°
2026-04-27 14:19 25.85246 -81.75752 31005 ft 498 kts 149°
2026-04-27 14:19 25.79371 -81.71689 30220 ft 495 kts 149°
2026-04-27 14:19 25.76455 -81.69679 29059 ft 490 kts 149°
2026-04-27 14:20 25.73577 -81.67701 28079 ft 482 kts 149°
2026-04-27 14:20 25.70747 -81.65761 27133 ft 475 kts 149°
2026-04-27 14:20 25.67958 -81.63851 26212 ft 468 kts 149°
2026-04-27 14:20 25.65234 -81.61986 25338 ft 462 kts 150°
2026-04-27 14:21 25.62519 -81.60130 24485 ft 455 kts 150°
2026-04-27 14:21 25.59838 -81.58295 23673 ft 449 kts 150°
2026-04-27 14:21 25.57200 -81.56486 22766 ft 443 kts 149°
2026-04-27 14:21 25.54585 -81.54706 21929 ft 436 kts 151°
2026-04-27 14:22 25.51841 -81.53391 21170 ft 426 kts 167°
2026-04-27 14:22 25.48957 -81.52873 20414 ft 415 kts 181°
2026-04-27 14:22 25.46112 -81.53143 19642 ft 404 kts 195°
2026-04-27 14:22 25.43477 -81.54107 18875 ft 395 kts 206°
2026-04-27 14:23 25.40959 -81.55288 18043 ft 392 kts 206°
2026-04-27 14:23 25.38463 -81.56450 17192 ft 387 kts 205°
2026-04-27 14:23 25.36025 -81.57577 16415 ft 381 kts 205°
2026-04-27 14:23 25.33605 -81.58694 15811 ft 371 kts 205°
2026-04-27 14:24 25.31266 -81.59772 15416 ft 356 kts 205°
2026-04-27 14:24 25.29019 -81.60807 14972 ft 344 kts 204°
2026-04-27 14:24 25.27562 -81.61477 14677 ft 337 kts 204°
2026-04-27 14:24 25.25429 -81.62457 14265 ft 327 kts 204°
2026-04-27 14:25 25.23353 -81.63412 13872 ft 318 kts 204°
2026-04-27 14:25 25.21335 -81.64345 13460 ft 313 kts 204°
2026-04-27 14:25 25.18677 -81.65578 12913 ft 312 kts 204°
2026-04-27 14:25 25.16677 -81.66506 12514 ft 312 kts 204°
2026-04-27 14:26 25.15323 -81.67134 12244 ft 311 kts 204°
2026-04-27 14:26 25.13332 -81.68056 11839 ft 310 kts 204°
2026-04-27 14:26 25.11349 -81.68970 11435 ft 308 kts 204°
2026-04-27 14:26 25.09396 -81.69870 11031 ft 307 kts 204°
2026-04-27 14:27 25.07432 -81.70773 10634 ft 305 kts 204°
2026-04-27 14:27 25.05471 -81.71676 10288 ft 302 kts 204°
2026-04-27 14:27 25.03529 -81.72567 10179 ft 303 kts 204°
2026-04-27 14:27 25.01581 -81.73460 10049 ft 302 kts 204°
2026-04-27 14:28 24.99638 -81.74350 9895 ft 302 kts 204°
2026-04-27 14:28 24.97700 -81.75238 9696 ft 301 kts 204°
2026-04-27 14:28 24.95770 -81.76123 9518 ft 300 kts 204°
2026-04-27 14:28 24.93845 -81.77008 9341 ft 299 kts 204°
2026-04-27 14:29 24.91946 -81.77884 9185 ft 299 kts 204°
2026-04-27 14:29 24.90029 -81.78768 9008 ft 298 kts 204°
2026-04-27 14:29 24.88095 -81.79575 8812 ft 297 kts 197°
2026-04-27 14:29 24.86048 -81.79853 8662 ft 298 kts 178°
2026-04-27 14:30 24.84037 -81.79320 8555 ft 299 kts 155°
2026-04-27 14:30 24.82316 -81.78049 8460 ft 299 kts 141°
2026-04-27 14:30 24.80679 -81.76635 8334 ft 298 kts 141°
2026-04-27 14:30 24.79051 -81.75219 8209 ft 298 kts 141°
2026-04-27 14:31 24.77445 -81.73821 8096 ft 285 kts 141°
2026-04-27 14:31 24.75950 -81.72523 8004 ft 263 kts 141°
2026-04-27 14:31 24.74576 -81.71333 7885 ft 246 kts 141°
2026-04-27 14:31 24.73268 -81.70201 7597 ft 237 kts 141°
2026-04-27 14:32 24.71976 -81.69081 7131 ft 236 kts 141°
2026-04-27 14:32 24.70665 -81.67948 6482 ft 244 kts 142°
2026-04-27 14:32 24.69302 -81.66775 5745 ft 253 kts 141°
2026-04-27 14:32 24.67890 -81.65555 4994 ft 261 kts 141°
2026-04-27 14:33 24.66450 -81.64307 4257 ft 265 kts 141°
2026-04-27 14:33 24.64994 -81.63048 3536 ft 267 kts 141°
2026-04-27 14:33 24.63526 -81.61782 2806 ft 269 kts 141°
2026-04-27 14:33 24.62064 -81.60528 2200 ft 267 kts 141°
2026-04-27 14:34 24.60657 -81.59324 2061 ft 245 kts 141°
2026-04-27 14:34 24.59375 -81.58219 2033 ft 222 kts 141°
2026-04-27 14:34 24.58109 -81.57465 2038 ft 196 kts 170°
2026-04-27 14:34 24.56843 -81.57644 2031 ft 179 kts 208°
2026-04-27 14:35 24.55976 -81.58564 1946 ft 172 kts 244°
2026-04-27 14:35 24.55743 -81.59820 1842 ft 168 kts 272°
2026-04-27 14:35 24.55741 -81.61100 1727 ft 167 kts 271°
2026-04-27 14:35 24.55733 -81.62377 1623 ft 166 kts 271°
2026-04-27 14:36 24.55724 -81.63650 1544 ft 167 kts 271°
2026-04-27 14:36 24.55713 -81.64887 1493 ft 155 kts 271°
2026-04-27 14:36 24.55701 -81.66016 1496 ft 141 kts 272°
2026-04-27 14:36 24.55691 -81.67081 1499 ft 137 kts 272°
2026-04-27 14:37 24.55680 -81.68130 1309 ft 136 kts 271°
2026-04-27 14:37 24.55669 -81.69165 1120 ft 135 kts 272°
2026-04-27 14:37 24.55659 -81.70197 940 ft 134 kts 272°
2026-04-27 14:37 24.55650 -81.71210 766 ft 135 kts 274°
2026-04-27 14:38 24.55641 -81.72238 585 ft 135 kts 272°
2026-04-27 14:38 24.55633 -81.73263 402 ft 134 kts 272°
2026-04-27 14:38 24.55623 -81.74291 223 ft 134 kts 272°
2026-04-27 14:38 24.55615 -81.75313 45 ft 133 kts 272°
2026-04-27 14:39 24.55614 -81.76178 10 ft 68 kts 269°
2026-04-27 14:39 24.55607 -81.76554 11 ft 29 kts 269°
2026-04-27 14:39 24.55589 -81.76655 12 ft 11 kts 198°
2026-04-27 14:39 24.55525 -81.76626 14 ft 10 kts 117°
2026-04-27 14:40 24.55522 -81.76546 12 ft 11 kts 95°
2026-04-27 14:40 24.55521 -81.76459 12 ft 12 kts 90°
2026-04-27 14:40 24.55522 -81.76365 12 ft 14 kts 89°
2026-04-27 14:40 24.55524 -81.76218 12 ft 22 kts 89°
2026-04-27 14:41 24.55526 -81.76049 12 ft 23 kts 89°
2026-04-27 14:41 24.55528 -81.75875 12 ft 23 kts 90°
2026-04-27 14:41 24.55529 -81.75698 12 ft 24 kts 89°
2026-04-27 14:41 24.55513 -81.75589 13 ft 11 kts 154°
2026-04-27 14:42 24.55491 -81.75520 12 ft 11 kts 93°
2026-04-27 14:42 24.55490 -81.75435 12 ft 7 kts 90°
2026-04-27 14:42 24.55468 -81.75418 12 ft 4 kts 177°
2026-04-27 14:42 24.55439 -81.75419 15 ft 2 kts 180°
2026-04-27 14:43 24.55436 -81.75419 12 ft 0 kts 180°